Tracking 29932 objects as of 4-Dec-2024
HD Live streaming from Space Station
objects crossing your sky now

STARLINK-6033

Track STARLINK-6033 now!
10-day predictions
STARLINK-6033 is classified as:


NORAD ID: 56322
Int'l Code: 2023-058E
Perigee: 568.8 km
Apogee: 571.6 km
Inclination: 97.7 °
Period: 95.9 minutes
Semi major axis: 6941 km
RCS: Unknown
Launch date: April 27, 2023
Source: United States (US)
Launch site: AIR FORCE WESTERN TEST RANGE (AFWTR)
Your satellite tracking list
Your tracking list is empty




NASA's NSSDC Master Catalog

Two Line Element Set (TLE):
1 56322U 23058F   24338.57411712  .00000711  00000-0  59984-4 0  9992
2 56322  97.6555 336.9032 0002016 156.1858 203.9460 15.01257527 88450
Source of the keplerian elements: AFSPC